Wind_Speed
26 25 24 24 24 24 25 25 24 23 22 20 18 17 15 13 11 11 10 9 8 8 9 9 10 10 11 10 10 9 10 10 11 12 13 13 13 13 14 14 14 15 15 15
27 28 27 25 24 24 25 24 24 23 22 19 18 16 14 12 12 10 9 9 9 10 9 10 10 11 11 10 10 10 10 11 11 12 13 12 13 14 14 14 14 14 14 14
29 29 29 28 25 25 25 24 23 23 22 21 19 16 15 13 12 12 12 11 11 11 11 12 12 11 11 11 11 11 11 11 11 11 11 12 13 14 14 14 14 14 14 14
30 30 32 28 26 25 25 24 24 23 22 22 21 18 16 15 13 13 14 14 13 13 13 12 12 12 12 12 12 12 12 12 13 13 13 13 13 13 14 15 15 15 15 15
32 31 30 29 28 25 25 25 24 24 23 22 20 19 17 16 14 14 14 14 13 13 13 12 12 12 12 13 13 13 13 13 14 14 14 14 14 14 14 15 15 15 15 16
33 33 32 29 29 28 26 27 25 24 24 22 21 20 18 17 16 15 14 14 13 13 13 13 13 13 14 14 14 14 14 14 15 15 14 14 14 14 15 15 15 16 16 17
34 33 32 30 29 29 29 27 26 25 23 21 22 21 20 18 17 16 16 15 15 14 14 14 15 15 16 16 15 15 15 16 16 15 15 15 15 15 15 16 16 16 17 17
36 35 34 31 31 31 29 26 26 25 23 22 21 21 20 19 18 17 16 16 16 16 16 16 16 17 17 17 17 17 17 17 16 16 16 16 16 16 16 17 17 17 18 18
36 35 32 32 31 31 30 29 26 26 24 23 22 20 20 19 18 18 17 17 17 17 17 17 17 17 17 17 17 17 17 17 17 16 16 16 16 17 17 17 18 18 18 19
35 35 33 32 32 32 31 30 29 28 27 24 22 21 19 19 18 18 18 18 18 18 18 18 18 18 18 18 18 18 18 18 17 17 17 17 17 17 17 17 18 18 19 19
35 34 32 32 32 31 30 28 27 26 25 24 21 21 20 19 19 19 19 19 19 19 19 19 19 19 19 19 20 20 19 19 18 18 18 18 17 17 17 17 18 18 19 19
34 33 32 31 31 31 29 28 26 25 25 24 23 23 22 20 20 21 21 21 21 20 20 21 21 20 20 20 20 20 20 20 19 19 18 18 18 18 18 19 19 20 19 20
33 33 32 31 31 30 30 29 28 26 25 25 25 24 22 21 22 22 22 22 22 21 21 22 22 22 21 21 21 21 20 20 20 20 19 19 19 19 19 20 20 20 20 21
31 30 30 30 30 30 30 29 28 27 26 25 25 24 23 22 22 22 22 22 22 22 22 22 22 22 22 21 21 21 21 21 21 20 20 20 20 20 20 21 20 20 21 22
30 30 29 28 27 28 28 27 26 26 25 24 23 22 22 22 22 22 23 22 22 22 22 23 22 22 22 21 21 21 21 21 21 21 21 21 21 21 21 21 21 21 22 23
29 27 28 27 27 26 26 27 27 26 25 24 23 22 21 21 22 22 22 22 22 22 22 22 22 21 21 20 20 20 20 20 20 20 20 20 20 20 21 21 21 22 22 23
29 27 27 27 26 24 24 24 25 25 25 23 23 22 21 21 21 21 21 21 22 22 22 21 20 20 19 19 19 20 20 20 21 20 20 19 20 20 21 21 22 23 24 25
27 26 24 23 23 23 23 23 22 23 24 23 23 21 20 20 20 21 21 21 21 22 21 20 20 19 19 19 20 20 20 20 20 19 20 20 21 21 21 22 23 24 25 25
23 22 21 20 20 21 21 21 21 22 22 22 21 21 21 21 20 20 20 21 20 20 20 19 19 19 19 20 19 20 20 19 19 19 20 20 21 21 22 23 23 24 25 26
22 21 21 21 21 20 19 20 20 20 20 20 19 19 19 19 19 19 20 19 17 17 18 18 18 18 18 18 18 18 18 18 19 20 20 21 20 21 22 23 24 25 25 26
22 21 20 20 20 20 19 19 18 18 18 18 17 17 18 18 18 17 17 17 16 16 15 15 15 16 16 16 16 16 16 17 18 19 19 20 21 22 23 24 25 25 26 27
19 19 19 19 19 19 19 18 17 16 16 16 16 16 16 16 15 15 14 14 13 13 13 13 14 14 14 14 15 15 15 16 17 18 19 20 21 22 23 23 24 25 26 27
18 17 17 17 17 17 17 17 16 15 15 15 15 15 14 14 14 13 13 12 12 12 12 13 13 13 12 13 14 15 15 16 17 18 19 20 21 22 22 24 25 26 26 27
16 16 16 16 15 15 15 14 14 13 13 13 13 13 13 13 12 12 11 11 11 11 11 11 11 12 12 13 13 14 16 17 18 19 19 20 21 22 23 24 24 25 26 27
16 16 16 15 15 14 13 13 12 11 11 11 11 10 10 11 11 10 10 10 11 11 11 11 12 12 13 14 14 15 16 17 18 19 20 21 21 22 24 25 26 27 28 28
16 15 15 14 13 13 13 12 12 11 11 11 10 10 10 10 10 10 10 11 12 12 13 13 13 13 14 15 16 17 19 20 20 21 22 22 24 25 26 27 27 28 28 29
15 14 13 13 12 12 12 12 12 11 11 11 10 10 10 10 10 11 11 12 12 13 13 13 14 15 17 18 19 20 21 22 23 23 24 25 26 26 27 27 27 27 27 27
Wind_Direction
213 211 213 215 218 222 226 229 234 240 246 255 263 266 268 266 275 281 292 296 295 290 288 293 295 295 298 293 290 291 289 281 273 270 274 274 274 273 272 273 268 263 262 262
213 212 214 215 218 223 226 228 232 237 241 249 257 260 266 267 278 283 287 290 287 283 280 284 289 291 295 296 296 296 295 288 279 277 277 276 276 276 275 274 269 265 266 266
213 212 214 216 218 224 226 227 232 237 241 245 253 261 266 272 279 287 292 291 286 280 279 281 289 290 292 292 295 296 295 292 290 287 286 286 281 277 276 275 272 268 267 269
216 215 216 216 218 222 225 227 231 236 239 245 252 261 268 270 277 284 287 289 286 285 280 285 285 284 286 288 290 291 293 293 292 290 288 285 283 279 277 276 274 270 270 272
218 218 219 217 218 221 224 228 230 235 240 245 251 259 265 271 275 282 286 288 289 286 284 283 283 285 285 287 288 290 290 290 292 291 290 286 281 278 277 276 275 272 273 273
221 220 220 218 219 221 226 231 234 237 241 246 252 259 264 268 273 280 283 285 289 287 283 283 285 285 284 286 287 288 288 288 288 289 289 287 284 281 278 277 276 275 275 274
221 222 223 221 222 224 228 234 239 242 243 244 252 256 261 265 267 273 279 283 284 283 281 282 283 282 283 284 285 286 285 286 287 285 284 284 283 281 281 280 278 278 278 277
223 225 224 223 227 227 229 236 242 245 246 248 253 253 256 258 262 269 275 279 282 283 283 282 282 283 284 284 284 284 284 286 286 284 283 282 281 280 280 280 280 279 278 278
223 225 223 224 228 229 233 236 241 244 246 250 250 249 249 253 260 266 271 276 279 280 281 281 282 284 285 285 286 285 284 284 286 285 284 282 280 280 280 279 279 278 278 279
222 224 225 225 226 229 233 237 241 241 244 246 247 246 250 254 260 265 268 271 275 278 279 280 282 283 284 284 284 285 284 283 284 285 285 283 281 282 282 280 279 279 278 279
224 225 226 226 228 230 234 237 238 243 246 245 251 250 253 258 264 267 268 270 274 276 277 278 280 283 283 283 283 283 284 284 284 283 284 284 283 283 283 283 282 283 282 281
227 227 229 231 233 233 235 238 241 245 250 254 256 253 255 258 263 267 269 272 273 275 277 278 278 281 282 282 282 282 283 283 282 283 282 281 281 281 280 280 280 280 282 283
227 228 231 232 234 235 236 240 245 249 253 256 256 257 255 258 262 266 269 270 271 274 276 277 278 279 281 282 281 281 281 281 280 281 281 281 281 280 280 281 281 281 282 285
228 231 233 233 234 235 236 240 244 247 252 254 253 254 255 257 260 264 268 270 271 273 276 277 278 278 279 280 279 279 279 279 280 281 282 282 282 281 280 280 281 282 283 285
231 232 234 234 237 237 239 242 245 247 249 250 252 254 256 257 260 264 267 270 272 274 276 277 278 279 279 279 277 276 277 278 279 279 280 280 281 280 278 279 280 282 284 286
230 233 235 235 237 237 240 241 243 245 246 250 254 256 257 258 261 265 267 269 271 273 275 277 277 278 278 279 277 275 277 278 280 280 279 279 279 279 278 280 281 283 285 288
230 234 235 235 237 241 244 243 241 243 246 251 252 254 257 259 261 264 267 269 270 272 274 274 274 276 277 276 276 276 277 278 279 279 279 279 279 280 281 280 282 284 286 289
232 232 235 235 236 239 239 240 241 244 247 249 252 255 258 260 263 266 267 269 271 272 272 271 272 272 274 276 275 274 273 275 276 278 279 278 280 281 282 282 285 288 290 291
230 230 231 230 231 234 238 242 244 245 247 248 251 255 258 259 262 265 267 270 271 270 269 270 269 270 274 275 273 272 274 275 276 279 280 280 280 282 283 285 287 290 292 293
222 225 228 230 232 233 236 239 241 242 244 247 251 255 258 259 261 263 263 265 267 268 268 268 269 270 271 275 275 276 278 278 279 280 281 281 280 282 285 286 288 290 292 294
220 223 226 228 229 229 233 235 235 238 242 245 248 251 253 256 260 260 258 258 262 265 266 266 268 272 274 278 278 279 280 281 281 280 282 282 282 284 285 287 290 292 293 295
219 220 221 222 225 227 230 233 235 237 239 241 244 247 249 253 254 254 254 257 261 263 268 271 271 273 275 276 279 282 283 284 284 285 286 287 287 288 289 290 293 295 296 297
214 215 217 219 221 225 228 230 231 234 237 240 242 244 246 248 248 248 250 254 260 265 268 272 275 276 276 277 279 282 285 287 287 288 289 290 291 293 294 295 296 298 299 300
210 212 213 212 213 216 218 220 223 229 235 238 239 239 241 242 242 244 250 256 262 267 271 276 278 278 281 284 286 287 288 289 290 291 292 293 293 294 295 297 298 298 299 300
205 205 207 208 210 213 215 215 219 223 224 225 228 232 234 235 238 241 246 257 262 265 268 273 279 283 285 287 290 291 292 292 293 293 294 294 294 295 296 297 299 300 300 301
198 199 202 204 206 208 207 209 212 215 219 221 225 229 231 235 239 245 255 262 265 267 270 276 282 285 288 290 292 294 294 294 293 294 294 294 295 296 298 298 299 300 301 302
189 191 193 196 198 202 204 206 209 213 217 220 222 226 233 241 246 252 259 263 267 271 276 281 285 287 288 288 290 292 294 294 294 295 295 296 296 296 297 298 300 301 303 304
Height
5817 5821 5824 5828 5831 5833 5836 5839 5841 5844 5846 5848 5849 5850 5852 5852 5853 5853 5854 5853 5854 5855 5855 5855 5855 5854 5854 5853 5852 5851 5850 5849 5848 5848 5848 5848 5848 5848 5848 5847 5846 5847 5847 5847
5813 5817 5820 5823 5826 5829 5831 5834 5837 5839 5842 5844 5846 5848 5849 5849 5850 5850 5851 5851 5852 5852 5852 5851 5851 5851 5850 5849 5849 5848 5847 5846 5845 5845 5845 5844 5844 5844 5844 5843 5843 5843 5843 5843
5808 5812 5816 5819 5822 5825 5827 5829 5833 5835 5839 5841 5843 5845 5846 5846 5847 5847 5848 5848 5849 5849 5848 5847 5847 5848 5847 5846 5846 5845 5844 5844 5843 5842 5841 5841 5841 5840 5840 5840 5839 5839 5838 5838
5804 5809 5811 5817 5819 5821 5823 5825 5829 5831 5833 5836 5839 5841 5841 5843 5844 5844 5845 5845 5845 5845 5844 5844 5844 5844 5844 5843 5843 5842 5841 5841 5840 5839 5838 5837 5837 5836 5836 5836 5835 5835 5834 5834
5799 5803 5806 5811 5814 5817 5819 5821 5824 5827 5830 5832 5834 5836 5837 5839 5839 5840 5840 5841 5840 5840 5840 5840 5841 5841 5840 5840 5839 5838 5838 5837 5836 5835 5834 5833 5833 5832 5832 5831 5831 5831 5830 5829
5794 5798 5801 5807 5810 5813 5817 5818 5820 5822 5825 5828 5830 5833 5834 5834 5835 5837 5837 5837 5837 5836 5836 5837 5837 5837 5837 5836 5835 5835 5834 5833 5832 5831 5830 5829 5829 5828 5828 5827 5827 5826 5825 5824
5788 5792 5797 5802 5805 5809 5812 5815 5817 5819 5821 5824 5827 5830 5831 5831 5832 5833 5833 5833 5833 5833 5833 5833 5833 5833 5833 5832 5831 5830 5830 5829 5828 5827 5826 5825 5825 5824 5823 5822 5822 5821 5820 5819
5783 5787 5794 5797 5800 5804 5807 5810 5812 5814 5817 5819 5822 5823 5825 5826 5827 5828 5829 5829 5829 5828 5829 5829 5829 5829 5828 5827 5827 5826 5825 5825 5824 5823 5822 5821 5820 5819 5818 5818 5817 5816 5815 5815
5777 5783 5788 5792 5796 5799 5802 5806 5808 5810 5813 5815 5816 5818 5820 5822 5823 5824 5824 5824 5824 5824 5824 5824 5824 5824 5823 5822 5822 5821 5820 5820 5819 5818 5817 5816 5815 5814 5814 5813 5812 5811 5810 5809
5771 5776 5781 5786 5789 5793 5797 5801 5803 5805 5807 5809 5812 5814 5815 5817 5818 5819 5819 5820 5820 5820 5820 5819 5819 5818 5818 5817 5816 5816 5815 5815 5814 5813 5812 5811 5810 5809 5808 5807 5806 5805 5805 5803
5765 5770 5775 5780 5783 5787 5791 5794 5797 5799 5801 5803 5805 5807 5809 5811 5812 5813 5814 5814 5814 5814 5814 5814 5813 5813 5812 5812 5811 5810 5810 5809 5808 5807 5806 5806 5805 5804 5803 5802 5801 5800 5799 5798
5761 5765 5770 5774 5777 5781 5785 5788 5790 5793 5795 5797 5798 5800 5803 5804 5806 5807 5808 5808 5808 5808 5808 5807 5807 5807 5806 5806 5805 5805 5804 5803 5802 5802 5801 5800 5799 5798 5797 5796 5795 5794 5793 5792
5754 5759 5764 5767 5771 5775 5778 5782 5784 5787 5789 5791 5793 5794 5796 5798 5799 5800 5801 5801 5802 5802 5801 5801 5800 5800 5800 5799 5799 5798 5798 5797 5796 5796 5795 5794 5793 5792 5792 5791 5790 5789 5787 5786
5748 5752 5757 5761 5764 5768 5772 5775 5778 5781 5783 5784 5787 5788 5790 5792 5793 5794 5795 5795 5795 5795 5795 5794 5794 5793 5793 5793 5792 5792 5791 5791 5790 5789 5789 5788 5787 5786 5785 5784 5784 5782 5781 5780
5742 5746 5750 5754 5757 5761 5765 5768 5771 5774 5776 5778 5780 5781 5783 5785 5786 5787 5788 5788 5788 5788 5788 5788 5787 5786 5786 5786 5785 5785 5785 5784 5784 5783 5782 5782 5781 5780 5779 5778 5777 5776 5774 5773
5736 5740 5744 5748 5751 5755 5758 5761 5764 5767 5769 5772 5774 5775 5777 5778 5779 5780 5781 5781 5781 5781 5781 5781 5780 5780 5779 5779 5779 5778 5778 5778 5777 5777 5776 5775 5775 5774 5773 5772 5771 5769 5767 5766
5730 5734 5738 5742 5746 5749 5752 5755 5758 5760 5763 5766 5768 5770 5771 5772 5773 5774 5774 5774 5775 5775 5774 5774 5774 5773 5773 5772 5772 5772 5772 5771 5771 5770 5770 5769 5768 5767 5766 5765 5764 5762 5760 5758
5725 5728 5732 5736 5740 5743 5747 5750 5753 5755 5757 5759 5761 5763 5765 5766 5767 5767 5768 5768 5768 5768 5768 5768 5768 5767 5767 5767 5766 5766 5766 5765 5764 5764 5763 5763 5762 5761 5760 5758 5756 5755 5753 5750
5720 5723 5727 5731 5735 5738 5741 5744 5747 5749 5751 5753 5755 5757 5759 5760 5761 5761 5762 5762 5761 5761 5761 5761 5762 5761 5761 5761 5760 5760 5759 5759 5758 5758 5757 5756 5755 5754 5752 5751 5749 5747 5745 5743
5716 5719 5723 5727 5730 5733 5736 5739 5741 5744 5746 5748 5750 5752 5753 5754 5755 5755 5756 5756 5756 5756 5756 5756 5756 5756 5755 5755 5754 5754 5753 5752 5752 5751 5750 5749 5748 5747 5746 5744 5742 5740 5738 5736
5711 5715 5719 5722 5725 5729 5732 5734 5737 5739 5741 5743 5744 5746 5747 5748 5749 5750 5750 5751 5751 5751 5751 5751 5751 5750 5750 5750 5749 5748 5748 5746 5745 5745 5744 5742 5741 5740 5739 5737 5735 5733 5731 5728
5708 5711 5715 5718 5721 5724 5727 5730 5732 5734 5736 5738 5740 5741 5742 5744 5745 5745 5746 5746 5747 5747 5747 5746 5746 5746 5745 5745 5744 5743 5742 5741 5740 5739 5738 5736 5735 5734 5732 5730 5728 5725 5723 5720
5704 5708 5711 5714 5717 5720 5723 5725 5728 5730 5732 5734 5735 5737 5738 5739 5740 5741 5742 5742 5743 5743 5743 5743 5742 5742 5741 5740 5739 5738 5737 5736 5735 5734 5732 5731 5729 5727 5725 5723 5721 5718 5715 5712
5702 5705 5708 5711 5714 5717 5719 5722 5724 5726 5728 5730 5731 5733 5734 5735 5736 5737 5737 5738 5739 5739 5739 5739 5738 5738 5737 5736 5735 5734 5733 5732 5730 5728 5727 5725 5723 5721 5718 5716 5713 5711 5708 5704
5699 5702 5706 5709 5712 5714 5717 5719 5721 5723 5725 5727 5728 5729 5730 5732 5733 5733 5734 5735 5735 5735 5735 5735 5735 5734 5733 5732 5731 5729 5728 5727 5725 5723 5721 5719 5717 5714 5712 5709 5706 5703 5700 5697
5697 5701 5704 5707 5710 5712 5714 5717 5719 5721 5722 5724 5725 5726 5727 5728 5729 5730 5731 5731 5731 5731 5731 5731 5730 5729 5729 5727 5726 5724 5723 5721 5719 5717 5715 5712 5710 5707 5704 5701 5698 5695 5692 5688
5696 5699 5702 5705 5708 5710 5712 5714 5716 5718 5720 5721 5722 5724 5725 5726 5726 5727 5727 5727 5727 5727 5727 5726 5725 5724 5723 5722 5720 5719 5717 5715 5712 5710 5708 5705 5703 5700 5697 5694 5691 5688 5684 5681